Change the Weather History Date:

Monday, April 15, 2013

  Actual Average Record
Temperature  
Mean Temperature 26 °F -  
Max Temperature 33 °F 54 °F 84 °F (2008)
Min Temperature 20 °F 32 °F 20 °F (2013)
Degree Days  
Heating Degree Days 38    
Moisture  
Dew Point 17 °F    
Average Humidity 67    
Maximum Humidity 76    
Minimum Humidity 55    
Precipitation  
Precipitation 0.00 in - - ()
Sea Level Pressure  
Sea Level Pressure 30.02 in    
Wind  
Wind Speed 22 mph (NNW)    
Max Wind Speed 30 mph    
Max Gust Speed 36 mph    
Visibility 10 miles    
Events      
Averages and records for this station are not official NWS values.
T = Trace of Precipitation, MM = Missing Value Source: NWS Daily Summary

Daily Weather History Graph

Daily Weather History Graph

Search for Another Location

Airport or City:

Trip Planner

Search our weather history database for the weather conditions in past years. The results will help you decide how hot, cold, wet, or windy it might be!

Date:

Astronomy

Apr. 15, 2013 Rise Set
Actual Time 6:08 AM MDT 7:37 PM MDT
Civil Twilight 5:38 AM MDT 8:07 PM MDT
Nautical Twilight 5:01 AM MDT 8:43 PM MDT
Astronomical Twilight 4:23 AM MDT 9:22 PM MDT
Moon 9:30 AM MDT (4/15) No Moon Set
Length of Visible Light 14h 28m
Length of Day
13h 28m
Waxing Crescent, 25% of the Moon is Illuminated
Apr 15
Waxing Crescent
Apr 18
First Quarter
Apr 25
Full
May 2
Last Quarter
May 9
New

Hourly Weather History & Observations

Time (MDT) Temp. Windchill Dew Point Humidity Pressure Visibility Wind Dir Wind Speed Gust Speed Precip Events Conditions
12:55 AM 21.7 °F 5.2 °F 14.7 °F 74% 29.86 in 10.0 mi NW 24.2 mph - N/A   Clear
1:55 AM 21.0 °F 5.7 °F 14.0 °F 74% 29.87 in 10.0 mi NW 19.6 mph - N/A   Clear
2:55 AM 21.6 °F 5.3 °F 13.6 °F 72% 29.86 in 10.0 mi NNW 23.0 mph 29.9 mph N/A   Clear
3:55 AM 21.2 °F 4.5 °F 13.3 °F 72% 29.87 in 10.0 mi NNW 24.2 mph 31.1 mph N/A   Clear
4:55 AM 20.3 °F 5.7 °F 13.3 °F 74% 29.92 in 10.0 mi NW 17.3 mph - N/A   Clear
5:55 AM 21.0 °F 5.7 °F 13.6 °F 73% 29.94 in 10.0 mi NW 19.6 mph - N/A   Scattered Clouds
6:55 AM 22.1 °F 5.1 °F 14.0 °F 71% 29.93 in 10.0 mi NW 26.5 mph - N/A   Clear
7:55 AM 23.9 °F 8.1 °F 16.2 °F 72% 29.97 in 10.0 mi NNW 24.2 mph - N/A   Clear
8:55 AM 25.2 °F 9.2 °F 16.9 °F 71% 29.98 in 10.0 mi NNW 26.5 mph 32.2 mph N/A   Clear
9:55 AM 27.3 °F 11.3 °F 16.7 °F 64% 29.99 in 10.0 mi NNW 29.9 mph 35.7 mph N/A   Clear
10:55 AM 28.9 °F 14.3 °F 17.1 °F 61% 30.02 in 10.0 mi NNW 26.5 mph - N/A   Clear
11:55 AM 29.7 °F 15.0 °F 17.8 °F 61% 30.02 in 10.0 mi NNW 27.6 mph - N/A   Clear
12:55 PM 30.4 °F 16.7 °F 17.4 °F 59% 30.01 in 10.0 mi NNW 24.2 mph 33.4 mph N/A   Clear
1:55 PM 32.0 °F 18.6 °F 17.8 °F 56% 30.00 in 10.0 mi NNW 25.3 mph 33.4 mph N/A   Clear
2:55 PM 32.7 °F 20.7 °F 18.0 °F 55% 30.03 in 10.0 mi North 20.7 mph 26.5 mph N/A   Mostly Cloudy
3:55 PM 33.3 °F 21.8 °F 19.0 °F 56% 30.04 in 10.0 mi NNW 19.6 mph 26.5 mph N/A   Overcast
4:55 PM 33.1 °F 20.9 °F 19.2 °F 57% 30.06 in 10.0 mi North 21.9 mph - N/A   Overcast
5:55 PM 31.8 °F 19.6 °F 18.0 °F 57% 30.08 in 10.0 mi North 20.7 mph - N/A   Overcast
6:55 PM 30.9 °F 19.1 °F 18.9 °F 61% 30.11 in 10.0 mi NNW 18.4 mph - N/A   Overcast
7:55 PM 30.0 °F 19.5 °F 20.8 °F 69% 30.14 in 10.0 mi North 13.8 mph - N/A   Overcast
8:55 PM 29.1 °F 17.9 °F 21.2 °F 72% 30.17 in 10.0 mi NNW 15.0 mph - N/A   Overcast
9:55 PM 28.2 °F 20.2 °F 21.4 °F 76% 30.19 in 10.0 mi NW 8.1 mph - N/A   Overcast
10:55 PM 28.2 °F 19.5 °F 21.0 °F 74% 30.19 in 10.0 mi NW 9.2 mph - N/A   Overcast
11:55 PM 28.2 °F 20.2 °F 19.8 °F 71% 30.17 in 10.0 mi NNW 8.1 mph - N/A   Overcast